Regional Weather Roundup
Issued by NWS

Home | Current Version | Previous Version | Graphics & Text | Print | Product List | Glossary Off
Versions: 1 2 3 4 5 6 7 8 9 10 11 12 13 14 15 16 17 18 19 20 21 22 23 24 25 26 27 28 29 30 31 32 33 34 35 36 37 38 39 40 41 42 43 44 45 46 47 48 49 50

000
ASUS43 KMKX 022300
RWRWI

WISCONSIN REGIONAL WEATHER ROUNDUP
NATIONAL WEATHER SERVICE MILWAUKEE/SULLIVAN WI
600 PM CDT THU JUL 02 2015

NOTE: "FAIR" INDICATES FEW OR NO CLOUDS BELOW 12,000 FEET WITH NO
SIGNIFICANT WEATHER AND/OR OBSTRUCTIONS TO VISIBILITY.

WIZ001-002-006>008-014>016-023>028-030000-
NORTHWEST WISCONSIN

CITY           SKY/WX    TMP DP  RH WIND       PRES   REMARKS
SUPERIOR ARPT  SUNNY     77  59  53 W10       29.95F
ASHLAND        SUNNY     76  58  53 SW6       29.96F
HAYWARD        SUNNY     75  51  43 SW8       29.99F
SIREN          SUNNY     76  47  36 S7        30.00S
CUMBERLAND     SUNNY     72  52  49 S6        30.00F
RICE LAKE      SUNNY     74  51  44 S6        30.01F
CHETEK         SUNNY     74  54  49 CALM      30.00F
LADYSMITH      SUNNY     74  54  48 S6        30.03S
EAU CLAIRE     NOT AVBL
MENOMONIE      SUNNY     76  54  46 SE5       30.00S
NEW RICHMOND   MOSUNNY   74  54  50 S5        30.00F
OSCEOLA        SUNNY     76  51  40 CALM      30.01F
$$

WIZ003>005-009-010-017-018-030000-
NORTH CENTRAL WISCONSIN

CITY           SKY/WX    TMP DP  RH WIND       PRES   REMARKS
MANITOWISH WTR SUNNY     73  54  51 SW5       30.00S
ARBOR VITAE    MOSUNNY   74  53  46 SW6       30.00F
WOODRUFF       MOSUNNY   74  53  46 SW6       30.00F
RHINELANDER    SUNNY     75  50  41 SW8       30.01F
EAGLE RIVER    SUNNY     73  48  40 W6        30.00F
LAND O LAKES   SUNNY     74  49  40 W6        30.01S
PHILLIPS       PTSUNNY   74  54  49 S3        30.00F
TOMAHAWK       SUNNY     73  51  46 S3        30.02S
MEDFORD        SUNNY     72  53  49 CALM      30.02S
MERRILL        SUNNY     74  50  42 SE3       30.02S
$$

WIZ029-030-035-036-043>047-030000-
CENTRAL WISCONSIN

CITY           SKY/WX    TMP DP  RH WIND       PRES   REMARKS
WAUSAU         SUNNY     74  48  39 SW6       29.99F
MOSINEE        SUNNY     72  52  49 S5        30.02
MARSHFIELD     SUNNY     73  48  41 S7        30.01F
STEVENS POINT  MOSUNNY   71  49  46 SE5       30.01F
WAUPACA        SUNNY     76  48  37 S6        30.01S
WAUTOMA        NOT AVBL
WISC RAPIDS    SUNNY     74  47  38 SE7       30.02S
CAMP DOUGLAS   NOT AVBL
$$

WIZ011>013-019>022-031-037>040-048>050-030000-
NORTHEAST WISCONSIN

CITY           SKY/WX    TMP DP  RH WIND       PRES   REMARKS
ANTIGO         SUNNY     70  52  52 S6        30.03S
SHAWANO        SUNNY     75  47  36 S6        30.02S
OCONTO         SUNNY     71  50  47 SE3       30.01F
STURGEON BAY   SUNNY     68  45  42 SE6       30.04F
GREEN BAY      SUNNY     72  44  36 E7        30.01F
MANITOWOC      NOT AVBL
APPLETON       SUNNY     72  39  30 E7        30.02F
CLINTONVILLE   SUNNY     73  46  38 E5        30.01S
OSHKOSH        SUNNY     72  45  37 SE7       30.01F
$$

WIZ032>034-041-042-053>061-030000-
SOUTHWEST WISCONSIN

CITY           SKY/WX    TMP DP  RH WIND       PRES   REMARKS
LA CROSSE      SUNNY     76  53  44 E7        29.98F
SPARTA         SUNNY     76  46  34 E8        30.01S
VIROQUA        SUNNY     73  51  46 E7        30.02S
BOSCOBEL       SUNNY     73  51  46 E6        29.99F
PRAIRIE DU CHI MOSUNNY   71  48  44 NE5       29.98F
PLATTEVILLE    PTSUNNY   71  49  45 NE6       29.99F
$$

WIZ056-057-062-063-064-067-068-030000-
SOUTH CENTRAL WISCONSIN

CITY           SKY/WX    TMP DP  RH WIND       PRES   REMARKS
REEDSBURG      SUNNY     72  51  48 E6        30.01S
BARABOO/DELLS  SUNNY     71  48  45 E5        30.02S
LONE ROCK      NOT AVBL
MINERAL POINT  MOSUNNY   70  45  40 E6        30.01F
MADISON        SUNNY     71  48  43 E3        30.00S
MIDDLETON      SUNNY     73  46  37 E8        30.01S
WATERTOWN      SUNNY     70  46  42 E9        30.00F
MONROE         MOSUNNY   68  52  56 NE10      29.99F
JANESVILLE     SUNNY     72  41  33 E12       29.98F
$$

WIZ051-052-058>065-066-070>072-030000-
SOUTHEAST WISCONSIN

CITY           SKY/WX    TMP DP  RH WIND       PRES   REMARKS
MILWAUKEE      MOSUNNY   61  48  62 NE13      30.02S
WAUKESHA       SUNNY     64  48  55 E6        30.02F
MILWAUKEE/TIMM SUNNY     64  46  52 NE6       30.03S
RACINE         SUNNY     61  48  62 N13       30.03S
BURLINGTON     SUNNY     65  51  59 E5        30.01S
KENOSHA        SUNNY     66  52  60 N7        30.01S
FOND DU LAC    SUNNY     71  45  39 E8        30.01F
SHEBOYGAN      SUNNY     66  46  48 E8        30.02F
WEST BEND      SUNNY     68  46  45 E9        30.02S
JUNEAU         SUNNY     70  48  44 E7        30.02S
$$

LSZ147-162-030000-
LAKE SUPERIOR

STATION/POSITION TIME  TEMP    WIND        PRES    WAVE
                       AIR SEA DIR/SP/G            HT/PER
                 (UTC) (F)     (DEG/KT/KT) (MB)    (FT/S)
W MID LAKE BUOY  2150   50 39  190/ 10/ 10 1014.1F   1
DEVILS ISLAND    2200   70     230/ 10/ 12 1013.8F
SAXON HARBOR     2200   78      CALM  /  5 1014.6S
$$

LMZ867-665-643>646-030000-
LAKE MICHIGAN

STATION/POSITION TIME  TEMP    WIND        PRES    WAVE
                       AIR SEA DIR/SP/G            HT/PER
                 (UTC) (F)     (DEG/KT/KT) (MB)    (FT/S)
CHAMBERS ISLAND  2200   71     320/  2/  3 1016.6F
S GREEN BAY BUOY 2230   70 70  120/  6/  8 1017.6
N MID LAKE BUOY  2150   59 56  190/  2/  2 1017.1F   0
NORTHPORT PIER   2200   61     130/  6/  7 1016.9S
SISTER BAY       2229   69     160/  9/ 10   N/A
ALGOMA LAKESHORE 2210           80/  7/  8   N/A
KEWAUNEE LAKESHO 2200   62      50/  2/  4 1016.5F
SHEBOYGAN LAKESH 2200   57      20/  8/  8 1017.3F
PORT WASHINGTON  2200   62      40/  8/ 11 1017.6S
ATWATER BUOY     2200   58      10/ 10/ 14 1018.0S
MILWAUKEE LAKESH 2200   58      30/ 11/ 13   N/A
KENOSHA   LAKESH 2200   58      30/ 14/ 17 1016.3S
$$

TC  - TEMPERATURE IN CELSIUS
VSB - VISIBILITY IN STATUTE MILES
WCI - WIND CHILL INDEX
HX  - HEAT INDEX



USA.gov is the U.S. government's official web portal to all federal, state and local government web resources and services.